Lexington Weather

Lexington, Massachusetts, USA

25°F
2/26/2021 7:13am 
  • Lexington Conditions: Clear
  • Temperature: 24.6°F / -4.1°CColder 0.9°F than last hour.
  • Dew Point: 15.3°FDecreased 0.1°Fsince last hour.
  • Relative Humidity: 67%Increased 2.0% since last hour.
  • Wind: Calm, 10-min avg: Calm, gust: None
  • Barometer: 30.33 inRising 0.03  inHg/hr Rising Slowly
  • Visibility: 10 miles
  • Snow Today: 0.0 in
  •   

Regional Weather Roundup
for Boston / Norton, MA

        
000
ASUS41 KBOX 230604
RWRBOX

REGIONAL WEATHER ROUNDUP
NATIONAL WEATHER SERVICE BOSTON/NORTON MA
100 AM EST TUE FEB 23 2021

NOTE:  "FAIR" INDICATES FEW OR NO CLOUDS BELOW 12,000 FEET WITH NO 
SIGNIFICANT WEATHER AND/OR OBSTRUCTIONS TO VISIBILITY.

MAZALL-230700-
EASTERN MASSACHUSETTS
  
CITY           SKY/WX    TMP DP  RH WIND       PRES   REMARKS
BOSTON         MOCLDY    35  30  82 W13G23    29.61R WCI  26          
6HR MIN TEMP:  35; 6HR MAX TEMP:  40; 6HR PCP:  0.02;                

BEVERLY        PTCLDY    35  31  85 W8        29.59R WCI  29          
LAWRENCE       CLEAR     32  31  96 SW10      29.60S WCI  24          
BEDFORD        CLEAR     35  33  92 W8        29.60R WCI  29          
BLUE HILL        N/A     32  32 100 W15G23    29.58R WCI  22          
NORWOOD        CLEAR     36  30  79 W8        29.63R WCI  30          
MARSHFIELD     MOCLDY    37  36  93 W7G14     29.61R                  
PLYMOUTH       MOCLDY    35  32  88 W9        29.62R WCI  28          
TAUNTON        PTCLDY    36  31  82 W6        29.63R WCI  31          
NEW BEDFORD    PTCLDY    37  32  82 W13       29.63R WCI  29          
$$

MAZALL-230700-
CAPE COD AND THE ISLANDS
  
CITY           SKY/WX    TMP DP  RH WIND       PRES   REMARKS
FALMOUTH       PTCLDY    36  34  93 W12       29.63R WCI  27          
HYANNIS        CLEAR     37  34  89 W9        29.61R WCI  30          
CHATHAM        CLEAR     37  34  89 VRB6      29.62R                  
PROVINCETOWN   PTCLDY    37  34  89 W16       29.61R WCI  28          
NANTUCKET      CLOUDY    36  36 100 W16G24    29.65R WCI  26          
MARTHAS VNYRD  CLEAR     37  35  92 W13G20    29.64R WCI  29          
$$
 
MAZALL-230700-
CENTRAL AND WESTERN MASSACHUSETTS
  
CITY           SKY/WX    TMP DP  RH WIND       PRES   REMARKS
WORCESTER      CLOUDY    33  28  81 W13       29.59S WCI  24          
6HR MIN TEMP:  33; 6HR MAX TEMP:  38; 6HR PCP:  0.03;                

FITCHBURG      PTCLDY    35  31  85 W6        29.61R WCI  30          
ORANGE         CLOUDY    32  30  92 W12       29.62S WCI  23          
SPRINGFIELD    MOCLDY    33  29  85 W9        29.63S WCI  25          
WESTFIELD      PTCLDY    33  29  85 W6        29.65S WCI  28          
NORTH ADAMS    CLOUDY    35  28  75 W15       29.63R WCI  25          
PITTSFIELD     CLOUDY    32  27  81 W12       29.60S WCI  23          
$$
 
RIZALL-230700-
RHODE ISLAND
  
CITY           SKY/WX    TMP DP  RH WIND       PRES   REMARKS
PROVIDENCE     PTCLDY    35  32  88 W10       29.66R WCI  27          
6HR MIN TEMP:  35; 6HR MAX TEMP:  43; 6HR PCP:  0.04;                

NEWPORT        PTCLDY    35  32  88 W7        29.65R WCI  29          
BLOCK ISLAND   PTCLDY    34  32  92 W13G20    29.68S WCI  25          
SMITHFIELD     CLEAR     33  32  96 W12       29.63R WCI  24          
WESTERLY       CLEAR     32  31  96 CALM      29.67R                  
$$
 
CTZALL-230700-
CONNECTICUT
  
CITY           SKY/WX    TMP DP  RH WIND       PRES   REMARKS
BRADLEY INTL   PTCLDY    33  29  85 SW5       29.66S WCI  29          
6HR MIN TEMP:  32; 6HR MAX TEMP:  35;                                

HARTFORD       CLEAR     33  29  85 S6        29.67S WCI  28          
BRIDGEPORT     CLEAR     35  31  85 SW6       29.70F WCI  30          
DANBURY        CLEAR     33  28  81 SW3       29.69F                  
GROTON         CLEAR     34  32  92 W7        29.67F WCI  28          
NEW HAVEN      PTCLDY    37  32  82 W3        29.68F                  
CHESTER        FAIR      34  32  93 W6G13     29.66F WCI  29          
MERIDEN        PTCLDY    35  29  78 CALM      29.68S                  
WILLIMANTIC    CLEAR     34  30  85 VRB3      29.66R                  
OXFORD         CLEAR     31  31 100 W3        29.67R                  
$$

MEZ002-015-021-024-NHZ003-005-008-011-012-014-VTZ005-008-230700-
NORTHERN NEW ENGLAND
  
CITY           SKY/WX    TMP DP  RH WIND       PRES   REMARKS
PORTLAND ME    CLOUDY    30  30 100 NW13      29.53R WCI  20          
6HR MIN TEMP:  30; 6HR MAX TEMP:  38; 6HR PCP:  0.21;                

BANGOR ME      MIX PCPN  33  32  96 N10       29.44F FOG     WCI  25  
CONCORD NH     MOCLDY    20  18  92 E5        29.58R WCI  13          
MANCHESTER NH  PTCLDY    34  28  79 SW5       29.58R WCI  30          
NASHUA NH      FLURRIES  30  30 100 VRB3      29.60R                  
PORTSMOUTH NH  CLEAR     32  30  95 W7        29.55R WCI  25          
JAFFREY NH     CLOUDY    32  27  81 W6        29.58R WCI  26          
KEENE NH       CLOUDY    30  29  96 S5        29.61S WCI  25          
BURLINGTON VT  CLOUDY    33  28  81 S9        29.56S WCI  25          
MT. WASHINGTON SNOWSHWR  12  12 100 NW56G64     N/A  VSB 0   WCI -15  
$$

NYZ052-076-230700-
EASTERN NEW YORK
  
CITY           SKY/WX    TMP DP  RH WIND       PRES   REMARKS
ALBANY         FLURRIES  31  29  92 W5        29.65F WCI  26          
6HR MIN TEMP:  25; 6HR MAX TEMP:  31; 6HR PCP: TRACE;                

NEW YORK CITY  PTCLDY    39  29  67 W16       29.74R WCI  30          
6HR MIN TEMP:  37; 6HR MAX TEMP:  39;                                

$$
 
ANZALL-230700-
MARINE OBSERVATIONS
  
STATION/POSITION TIME  TEMP    WIND        PRES    VSBY  WAVE
                       AIR SEA DIR/SP/G                  HT/PER
                 (UTC) (F)     (DEG/KT/KT) (MB)    (MI)  (FT/S)
BOSTON BUOY      0540   38 39  270/ 17/ 21 1002.6R
BUZZARDS BAY     0500          260/ 20/ 21 1004.4R
NANTUCKET SOUND  0540      36  260/ 16/ 19   N/A
MASS BAY-STELLWA 0504   37     280/ 16/ 19 1000.0R  1 7/8  3/ 4
ISLE OF SHOALS   0500   34     270/ 17/ 19 1000.1F
S OF BLOCK IS    0526      38                N/A          11/10
$$

......................KEY.........................
  SKY/WX - SKY CONDITION/PRESENT WEATHER
  TMP    - TEMPERATURE IN FAHRENHEIT
  DWPT   - DEWPOINT IN FAHRENHEIT
  RH     - RELATIVE HUMIDITY IN PERCENT
  WIND   - DIRECTION AND SPEED IN MPH
  PRES   - MEAN SEA LEVEL PRESSURE IN INCHES OF HG
  WCI    - WIND CHILL INDEX
  VSB    - VISIBILITY IN MILES
  HX     - HEAT INDEX
  TC     - TEMPERATURE IN CELSIUS
  VRB    - VARIABLE WIND DIRECTION
  N/A    - NOT AVAILABLE
  
      

Other recent Regional Weather Roundups

Fri Feb 26, 7:04am

Fri Feb 26, 6:04am

Fri Feb 26, 5:04am

Fri Feb 26, 4:04am

Fri Feb 26, 3:04am

Fri Feb 26, 2:04am

Fri Feb 26, 1:04am

Fri Feb 26, 12:04am

Thu Feb 25, 11:04pm

Thu Feb 25, 10:04pm

Thu Feb 25, 9:04pm

Thu Feb 25, 8:05pm

Thu Feb 25, 7:05pm

Thu Feb 25, 6:04pm

Thu Feb 25, 5:04pm

Thu Feb 25, 4:05pm

Thu Feb 25, 3:05pm

Thu Feb 25, 2:04pm

Thu Feb 25, 1:04pm

Thu Feb 25, 12:05pm

Thu Feb 25, 11:04am

Thu Feb 25, 10:04am

Thu Feb 25, 9:04am

Thu Feb 25, 8:04am

Thu Feb 25, 7:04am

Thu Feb 25, 6:04am

Thu Feb 25, 5:04am

Thu Feb 25, 4:04am

Thu Feb 25, 3:04am

Thu Feb 25, 2:04am

Thu Feb 25, 1:04am

Thu Feb 25, 12:04am

Wed Feb 24, 11:04pm

Wed Feb 24, 10:05pm

Wed Feb 24, 9:04pm

Wed Feb 24, 8:04pm

Wed Feb 24, 7:04pm

Wed Feb 24, 6:04pm

Wed Feb 24, 5:04pm

Wed Feb 24, 4:04pm

Wed Feb 24, 3:04pm

Wed Feb 24, 2:05pm

Wed Feb 24, 1:05pm

Wed Feb 24, 12:05pm

Wed Feb 24, 11:04am

Wed Feb 24, 10:04am

Wed Feb 24, 9:04am

Wed Feb 24, 8:04am

Wed Feb 24, 7:04am

Wed Feb 24, 6:04am

Wed Feb 24, 5:04am

Wed Feb 24, 4:04am

Wed Feb 24, 3:04am

Wed Feb 24, 2:04am

Wed Feb 24, 1:04am

Wed Feb 24, 12:04am

Tue Feb 23, 11:04pm

Tue Feb 23, 10:04pm

Tue Feb 23, 9:04pm

Tue Feb 23, 8:05pm

Tue Feb 23, 7:04pm

Tue Feb 23, 6:04pm

Tue Feb 23, 5:04pm

Tue Feb 23, 4:05pm

Tue Feb 23, 3:04pm

Tue Feb 23, 2:04pm

Tue Feb 23, 1:04pm

Tue Feb 23, 12:04pm

Tue Feb 23, 11:04am

Tue Feb 23, 10:04am

Tue Feb 23, 9:04am

Tue Feb 23, 7:04am

Tue Feb 23, 6:04am

Tue Feb 23, 5:04am

Tue Feb 23, 4:04am

Tue Feb 23, 3:04am

Tue Feb 23, 2:04am

Tue Feb 23, 12:04am

Mon Feb 22, 11:04pm

Mon Feb 22, 10:04pm

Mon Feb 22, 9:04pm

Mon Feb 22, 8:04pm

Mon Feb 22, 7:04pm

Mon Feb 22, 6:04pm

Mon Feb 22, 5:04pm

Mon Feb 22, 4:05pm

Mon Feb 22, 3:04pm

Mon Feb 22, 2:05pm

Mon Feb 22, 1:04pm

Mon Feb 22, 12:05pm

Mon Feb 22, 11:04am

Mon Feb 22, 10:04am

Mon Feb 22, 9:05am

Mon Feb 22, 8:04am

Mon Feb 22, 7:04am

Mon Feb 22, 6:04am

Mon Feb 22, 5:04am

Mon Feb 22, 4:04am

Mon Feb 22, 3:04am

Mon Feb 22, 2:04am

Mon Feb 22, 1:04am

Mon Feb 22, 12:04am

Sun Feb 21, 11:04pm

Sun Feb 21, 10:05pm

Sun Feb 21, 9:04pm

Sun Feb 21, 8:04pm

Sun Feb 21, 7:04pm

Sun Feb 21, 6:04pm

Sun Feb 21, 5:04pm

Sun Feb 21, 4:05pm

Sun Feb 21, 3:04pm

Sun Feb 21, 2:04pm

Sun Feb 21, 1:05pm

Sun Feb 21, 12:05pm

Sun Feb 21, 11:04am

Sun Feb 21, 10:05am

Sun Feb 21, 9:04am

Sun Feb 21, 8:04am

Sun Feb 21, 7:04am

Sun Feb 21, 6:04am

Sun Feb 21, 5:04am

Sun Feb 21, 4:04am

Sun Feb 21, 3:04am

Sun Feb 21, 2:04am

Sun Feb 21, 1:04am

Sun Feb 21, 12:04am

Sat Feb 20, 11:04pm

Sat Feb 20, 10:04pm

Sat Feb 20, 9:04pm

Sat Feb 20, 8:04pm

Sat Feb 20, 7:04pm

Sat Feb 20, 6:04pm

Sat Feb 20, 5:04pm

Sat Feb 20, 4:05pm

Sat Feb 20, 3:04pm

Sat Feb 20, 2:04pm

Sat Feb 20, 1:05pm

Sat Feb 20, 12:05pm

Sat Feb 20, 11:04am

Sat Feb 20, 10:05am

Sat Feb 20, 9:04am

Sat Feb 20, 8:04am

Sat Feb 20, 7:04am

Sat Feb 20, 6:04am

Sat Feb 20, 5:04am

Sat Feb 20, 4:04am

Sat Feb 20, 3:04am

Sat Feb 20, 2:04am

Sat Feb 20, 1:04am

Sat Feb 20, 12:04am

Fri Feb 19, 11:04pm

Fri Feb 19, 10:05pm

Fri Feb 19, 9:04pm

Fri Feb 19, 8:04pm

Fri Feb 19, 7:04pm

Fri Feb 19, 6:04pm

Fri Feb 19, 5:04pm

Fri Feb 19, 4:05pm

Fri Feb 19, 3:04pm

Fri Feb 19, 2:04pm

Fri Feb 19, 1:05pm

Fri Feb 19, 12:05pm

Fri Feb 19, 11:04am

Fri Feb 19, 10:04am

Fri Feb 19, 9:04am

Fri Feb 19, 8:04am

Meta data:

ID: a70e9ec9-565c-4260-b91c-b5a9e608f418
Link: https://api.weather.gov/products/a70e9ec9-565c-4260-b91c-b5a9e608f418